Flag for Canada Weather past 2 weeks in Fort Liard, Northwest Territories, Canada

Now
66 °F

Mild.


Feels Like: 66 °F
Forecast: 53 / 67 °F
Wind: 3 mph from Northeast

Location: Lindberg Landing

Current Time: May 26, 2015 at 10:21:25 PM

Latest Report: May 26, 2015 at 9:00 PM


Visibility: N/A

Pressure: 30.01 "Hg

Humidity: 46%

Dew point: 44 °F

Location of Fort LiardLocation

Historic Weather in Fort Liard — Graph

°F

Fort Liard temperature yesterday

Maximum temperature yesterday: 72 °F (at 3:00 PM)
Minimum temperature yesterday: 47 °F (at 5:00 AM)
Average temperature yesterday: 61 °F

Past Weeks' High & Low Weather Summary

 TemperatureHumidityPressure
High86 °F (May 24, 4:00 PM)100% (May 16, 5:00 AM)30.42 "Hg (May 16, 5:00 AM)
Low24 °F (May 16, 6:00 AM)11% (May 19, 3:00 PM)29.64 "Hg (May 14, 6:00 PM)
Average60 °F53%30.02 "Hg
* Reported May 11 8:00 PM — May 26 8:00 PM, Fort Liard, Weather by CustomWeather, © 2015

Note: Actual official high and low records may vary slightly from our data, if they occured in-between our weather recording intervals... More about our weather records

Advertising

Fort Liard weather history for previous 24 hours

 ConditionsComfort  
Time TempWeatherWind HumidityBarometerVisibility
8:00 PM
Tue, May 26
66 °FMild.2 mph60%29.99 "HgN/A
7:00 PM67 °FMild.1 mph54%30.00 "HgN/A
6:00 PM66 °FMild.1 mph58%30.01 "HgN/A
5:00 PM63 °FMild.1 mph58%30.02 "HgN/A
4:00 PM62 °FRefreshingly cool.3 mph60%30.01 "HgN/A
3:00 PM59 °FCool.5 mph65%30.03 "HgN/A
2:00 PM58 °FCool.5 mph63%30.04 "HgN/A
1:00 PM62 °FRefreshingly cool.3 mph53%30.03 "HgN/A
12:00 PM62 °FMild.3 mph48%30.02 "HgN/A
11:00 AM61 °FRefreshingly cool.2 mph45%30.02 "HgN/A
10:00 AM58 °FRefreshingly cool.2 mph55%30.03 "HgN/A
9:00 AM52 °FCool.No wind71%30.03 "HgN/A
8:00 AM51 °FCool.1 mph82%30.02 "HgN/A
7:00 AM47 °FCool.No wind86%30.02 "HgN/A
6:00 AM42 °FQuite cool.No wind94%30.02 "HgN/A
5:00 AM42 °FQuite cool.No wind96%30.02 "HgN/A
4:00 AM42 °FQuite cool.1 mph100%30.01 "HgN/A
3:00 AM45 °FCool.1 mph93%30.02 "HgN/A
2:00 AM47 °FCool.No wind88%30.01 "HgN/A
1:00 AM49 °FCool.No wind87%30.01 "HgN/A
12:00 AM52 °FCool.No wind83%30.01 "HgN/A
11:00 PM
Mon, May 25
56 °FCool.No wind80%29.99 "HgN/A
10:00 PM62 °FRefreshingly cool.1 mph55%29.97 "HgN/A
Weather by CustomWeather, © 2015

See weather overviewHow to use our weather pages